CW0351 Weather Reports


Display with metric or nautical units.
time (UTC)temp
F
wind
direction
speed
MPH
gust
MPH
rain 1hr
in
rain 24hr
in
rain mn
in
humidity
%
barometer
mb
20260509054608 53 0 0.0 0.0 0.00 0.00 0.00 74 1012.8
20260509053101 54 0 0.0 0.0 0.00 0.00 0.00 71 1012.8
20260509051604 54 0 0.0 0.0 0.00 0.00 0.00 72 1013.0
20260509050053 54 0 0.0 0.0 0.00 0.00 0.00 72 1012.9
20260509044602 54 0 0.0 0.0 0.00 0.00 0.00 71 1012.8
20260509043050 54 0 0.0 0.0 0.00 0.00 0.00 70 1012.9
20260509041550 54 0 0.0 0.0 0.00 0.00 0.00 70 1013.0
20260509040055 55 0 0.0 0.0 0.00 0.00 0.00 66 1013.1
20260509034548 55 0 0.0 0.0 0.00 0.00 0.00 66 1013.1
20260509033050 55 0 0.0 0.0 0.00 0.00 0.00 69 1013.2
20260509031605 55 0 0.0 0.0 0.00 0.00 0.00 66 1013.0
20260509030053 55 0 0.0 0.0 0.00 0.00 0.00 65 1012.9
20260509024553 55 0 0.0 0.0 0.00 0.00 0.00 64 1013.0
20260509023103 56 0 0.0 0.0 0.00 0.00 0.00 63 1013.0
20260509021551 56 0 0.0 0.0 0.00 0.00 0.00 60 1013.0
20260509020053 56 0 0.0 0.0 0.00 0.00 0.00 59 1012.8
20260509014554 57 0 0.0 0.0 0.00 0.00 0.00 57 1012.5
20260509013050 58 0 0.0 0.0 0.00 0.00 0.00 54 1012.5
20260509011553 58 0 0.0 0.0 0.00 0.00 0.00 56 1012.4
20260509004557 59 0 0.0 0.0 0.00 0.00 0.00 56 1011.9
20260509003055 59 0 0.0 0.0 0.00 0.00 0.00 52 1011.6
20260509001557 59 0 0.0 0.0 0.00 0.00 0.00 49 1011.5
20260509000055 60 0 0.0 0.0 0.00 0.00 0.00 49 1011.3
20260508234551 61 0 0.0 0.0 0.00 0.00 0.00 47 1011.2
20260508233055 62 0 0.0 0.0 0.00 0.00 0.00 44 1011.1
20260508231557 62 0 0.0 0.0 0.00 0.00 0.00 43 1011.0
20260508230125 62 0 0.0 4.0 0.00 0.00 0.00 42 1011.0
20260508224601 62 0 0.0 0.0 0.00 0.00 0.00 41 1011.0
20260508223052 63 0 0.0 3.0 0.00 0.00 0.00 42 1011.0
20260508221559 63 0 0.0 4.0 0.00 0.00 0.00 40 1011.0
20260508220120 63 0 0.0 7.0 0.00 0.00 0.00 39 1011.1
20260508214556 64 0 1.0 6.0 0.00 0.00 0.00 36 1011.0
20260508213059 66 0 0.0 8.0 0.00 0.00 0.00 37 1010.9
20260508211554 66 224 1.0 11.0 0.00 0.00 0.00 34 1011.0
20260508210057 66 279 1.0 13.0 0.00 0.00 0.00 36 1011.0
20260508204607 63 351 0.0 5.0 0.00 0.00 0.00 37 1011.1
20260508203103 65 0 3.0 15.0 0.00 0.00 0.00 34 1011.2
20260508201601 65 246 1.0 11.0 0.00 0.00 0.00 40 1011.2
20260508194601 64 209 1.0 10.0 0.00 0.00 0.00 37 1011.3
20260508193104 63 0 3.0 13.0 0.00 0.00 0.00 35 1011.3
20260508191558 65 225 1.0 10.0 0.00 0.00 0.00 35 1011.2
20260508190106 64 0 2.0 16.0 0.00 0.00 0.00 39 1011.2
20260508184555 64 284 4.0 14.0 0.00 0.00 0.00 36 1011.4
20260508183052 64 261 3.0 12.0 0.00 0.00 0.00 36 1011.4
20260508181607 64 229 1.0 18.0 0.00 0.00 0.00 37 1011.6
20260508180107 64 205 5.0 17.0 0.00 0.00 0.00 37 1011.8
20260508174611 64 221 4.0 12.0 0.00 0.00 0.00 33 1012.0
20260508173050 63 65 3.0 11.0 0.00 0.00 0.00 40 1012.1
20260508171552 63 0 2.0 10.0 0.00 0.00 0.00 39 1012.4
20260508170058 62 239 3.0 12.0 0.00 0.00 0.00 38 1012.6
20260508164552 62 153 6.0 16.0 0.00 0.00 0.00 38 1012.4
20260508163052 61 204 2.0 14.0 0.00 0.00 0.00 39 1012.7
20260508161553 61 242 3.0 9.0 0.00 0.00 0.00 39 1013.0
20260508160050 60 238 2.0 9.0 0.00 0.00 0.00 44 1013.3
20260508154550 59 209 3.0 8.0 0.00 0.00 0.00 44 1013.5
20260508153101 58 172 1.0 11.0 0.00 0.00 0.00 40 1013.6
20260508151552 58 0 1.0 13.0 0.00 0.00 0.00 46 1013.8
20260508150054 57 188 1.0 11.0 0.00 0.00 0.00 45 1013.9
20260508144553 57 0 0.0 5.0 0.00 0.00 0.00 44 1013.8
20260508143058 57 213 1.0 8.0 0.00 0.00 0.00 43 1013.8
20260508141558 56 0 2.0 8.0 0.00 0.00 0.00 41 1014.0
20260508140051 56 0 2.0 6.0 0.00 0.00 0.00 41 1014.0
20260508134559 55 0 0.0 7.0 0.00 0.00 0.00 47 1014.1
20260508133055 55 0 0.0 4.0 0.00 0.00 0.00 53 1014.0
20260508131552 54 0 0.0 5.0 0.00 0.00 0.00 55 1014.0
20260508130055 54 0 0.0 5.0 0.00 0.00 0.00 57 1014.2
20260508124553 53 0 0.0 7.0 0.00 0.00 0.00 61 1014.3
20260508123105 52 205 0.0 6.0 0.00 0.00 0.00 62 1014.3
20260508121556 51 0 0.0 4.0 0.00 0.00 0.00 66 1014.2
20260508120052 50 0 0.0 0.0 0.00 0.00 0.00 72 1013.9
20260508114555 48 0 0.0 0.0 0.00 0.00 0.00 78 1013.6
20260508113103 45 0 0.0 0.0 0.00 0.00 0.00 85 1013.9
20260508111556 42 0 0.0 0.0 0.00 0.00 0.00 88 1013.9
20260508110053 41 0 0.0 0.0 0.00 0.00 0.00 87 1013.8
20260508104555 40 0 0.0 0.0 0.00 0.00 0.00 86 1013.8
20260508103057 41 0 0.0 0.0 0.00 0.00 0.00 86 1013.7
20260508101558 41 0 0.0 0.0 0.00 0.00 0.00 86 1013.4
20260508100058 41 0 0.0 0.0 0.00 0.00 0.00 84 1013.3
20260508094609 41 0 0.0 0.0 0.00 0.00 0.00 83 1013.2
20260508093050 42 0 0.0 0.0 0.00 0.00 0.00 81 1013.1
20260508091552 42 0 0.0 0.0 0.00 0.00 0.00 80 1013.1
20260508090055 43 0 0.0 0.0 0.00 0.00 0.00 79 1012.9
20260508084552 44 0 0.0 0.0 0.00 0.00 0.00 77 1012.8
20260508083055 45 0 0.0 0.0 0.00 0.00 0.00 75 1012.6
20260508081610 46 0 0.0 0.0 0.00 0.00 0.00 74 1012.3
20260508080051 47 0 0.0 0.0 0.00 0.00 0.00 71 1012.2
20260508074550 48 0 0.0 3.0 0.00 0.00 0.00 69 1011.9
20260508073050 48 0 0.0 8.0 0.00 0.00 0.00 66 1011.7
20260508071557 49 0 2.0 9.0 0.00 0.00 0.00 65 1011.8
20260508070054 50 0 0.0 8.0 0.00 0.00 0.00 65 1011.6
20260508064555 50 0 1.0 9.0 0.00 0.00 0.00 63 1011.3
20260508063105 51 360 0.0 9.0 0.00 0.00 0.00 61 1011.2
20260508061556 51 242 1.0 10.0 0.00 0.00 0.00 61 1011.1
20260508060058 51 0 0.0 6.0 0.00 0.00 0.00 60 1010.2
20260508054602 51 0 0.0 6.0 0.00 0.00 0.00 64 1010.2
20260508053055 51 0 0.0 6.0 0.00 0.00 0.00 63 1010.2
20260508051556 50 0 0.0 0.0 0.00 0.00 0.00 69 1010.1
20260508050051 51 0 0.0 0.0 0.00 0.00 0.00 71 1009.9
20260508044550 51 0 0.0 0.0 0.00 0.00 0.00 74 1009.6
20260508043057 50 0 0.0 0.0 0.00 0.00 0.00 73 1009.7
20260508041554 50 0 0.0 0.0 0.00 0.00 0.00 74 1009.9
20260508034558 50 0 0.0 0.0 0.00 0.00 0.00 71 1009.4
20260508033055 50 0 0.0 0.0 0.00 0.00 0.00 69 1009.4
20260508031556 50 0 0.0 0.0 0.00 0.00 0.00 71 1009.3
20260508030103 49 0 0.0 0.0 0.00 0.00 0.00 69 1009.4
20260508024554 49 0 0.0 0.0 0.00 0.00 0.00 67 1009.5
20260508023052 49 0 0.0 0.0 0.00 0.00 0.00 66 1009.4
20260508021558 50 0 0.0 0.0 0.00 0.00 0.00 66 1009.4
20260508014553 51 0 0.0 0.0 0.00 0.00 0.00 62 1009.1
20260508013054 52 0 0.0 0.0 0.00 0.00 0.00 58 1009.0
20260508011551 53 0 0.0 0.0 0.00 0.00 0.00 58 1008.9
20260508010054 53 0 0.0 0.0 0.00 0.00 0.00 52 1008.9
20260508004548 54 0 0.0 0.0 0.00 0.00 0.00 53 1008.8
20260508003052 55 0 0.0 0.0 0.00 0.00 0.00 47 1008.6
20260508001552 56 0 0.0 0.0 0.00 0.00 0.00 41 1008.4
20260508000053 57 0 0.0 0.0 0.00 0.00 0.00 38 1008.2
20260507234553 58 0 0.0 0.0 0.00 0.00 0.00 38 1008.0
20260507233056 59 0 0.0 0.0 0.00 0.00 0.00 41 1008.0
20260507231555 60 0 0.0 4.0 0.00 0.00 0.00 35 1008.0
20260507230104 61 0 0.0 1.0 0.00 0.00 0.00 36 1007.9
20260507224558 62 0 0.0 0.0 0.00 0.00 0.00 36 1007.9
20260507223050 63 0 0.0 9.0 0.00 0.00 0.00 33 1007.9
20260507221551 64 0 0.0 5.0 0.00 0.00 0.00 35 1008.0
20260507220052 65 0 0.0 8.0 0.00 0.00 0.00 32 1007.9
20260507214604 65 234 0.0 10.0 0.00 0.00 0.00 33 1007.7
20260507213058 66 0 1.0 6.0 0.00 0.00 0.00 30 1007.9
20260507211600 65 0 0.0 10.0 0.00 0.00 0.00 30 1007.9
20260507210105 65 12 2.0 8.0 0.00 0.00 0.00 30 1007.8
20260507204559 66 0 1.0 7.0 0.00 0.00 0.00 38 1007.7
20260507203106 65 0 0.0 8.0 0.00 0.00 0.00 32 1007.7
20260507201617 65 0 0.0 7.0 0.00 0.00 0.00 32 1008.0
20260507200107 63 13 0.0 11.0 0.00 0.00 0.00 33 1007.9
20260507194553 65 0 1.0 6.0 0.00 0.00 0.00 31 1008.1
20260507193054 65 0 0.0 11.0 0.00 0.00 0.00 38 1008.5
20260507191557 63 0 0.0 7.0 0.00 0.00 0.00 41 1008.7
20260507190058 63 261 1.0 9.0 0.00 0.00 0.00 31 1008.9
20260507184558 63 0 1.0 9.0 0.00 0.00 0.00 36 1009.0
20260507183058 63 17 0.0 4.0 0.00 0.00 0.00 38 1009.1
20260507181553 62 0 0.0 9.0 0.00 0.00 0.00 36 1009.3
20260507180052 61 351 3.0 10.0 0.00 0.00 0.00 40 1009.5